{"data":{"norad_id":63688,"intl_designator":"2025-086B","name":"HULIANWANG DIGUI-21","alt_names":[],"object_type":"PAYLOAD","status":"ACTIVE","operator":null,"country":"PRC","launch_date":"2025-04-28","launch_site_code":"WSC","launch_vehicle":null,"mission":null,"orbit_class":"UNKNOWN","rcs_meters":null,"size_class":null,"mass_kg":null,"dimensions":null,"purposes":[],"wikipedia_slug":null,"has_3d_model":false,"image_url":null,"decayed_at":null,"tle_current":{"epoch":"2026-05-25T03:23:15.981216Z","epoch_age_seconds":73437,"freshness":"FRESH","line1":"1 63688U 25086B   26145.14115719  .00000056  00000+0  96441-4 0  9997","line2":"2 63688  86.5062 320.9510 0001507  77.6001 282.5302 13.24407636 51817","mean_motion":13.24407636,"eccentricity":0.0001507,"inclination_deg":86.5062,"raan_deg":320.951,"arg_perigee_deg":77.6001,"mean_anomaly_deg":282.5302,"bstar":9.6441e-5,"rev_number":5181,"period_min":108.72785393696,"perigee_km":1166.7939727051,"apogee_km":1169.0683576501,"semimajor_km":7546.0681651776,"source":"CELESTRAK","updated_at":"2026-05-25T13:38:03.890026Z"}}}